2023/08/15 00:00:00, 6.4,22.7
2023/08/15 00:10:00, 0.0,22.9
2023/08/15 00:20:00,---,22.8
2023/08/15 00:30:00,11.2,22.8
2023/08/15 00:40:00, 2.2,23.2
2023/08/15 00:50:00,---,22.6
2023/08/15 01:00:00, 4.1,22.8
2023/08/15 01:10:00,15.8,22.7
2023/08/15 01:20:00,64.2,22.6
2023/08/15 01:30:00,55.2,22.7
2023/08/15 01:40:00,37.4,22.8
2023/08/15 01:50:00,37.4,22.8
2023/08/15 02:00:00,36.7,22.8
2023/08/15 02:10:00,35.5,22.8
2023/08/15 02:20:00,37.2,22.7
2023/08/15 02:30:00,---,22.6
2023/08/15 02:40:00,38.1,22.9
2023/08/15 02:50:00,36.8,22.7
2023/08/15 03:00:00,29.3,22.7
2023/08/15 03:10:00,47.4,22.7
2023/08/15 03:20:00,50.4,22.4
2023/08/15 03:30:00,45.4,22.6
2023/08/15 03:40:00,---,22.7
2023/08/15 03:50:00,54.7,22.7
2023/08/15 04:00:00,53.8,22.5
2023/08/15 04:10:00,38.7,22.6
2023/08/15 04:20:00,37.2,22.5
2023/08/15 04:30:00,36.4,22.6
2023/08/15 04:40:00,37.1,22.6
2023/08/15 04:50:00,36.7,22.7
2023/08/15 05:00:00,36.1,22.9
2023/08/15 05:10:00,33.5,23.0
2023/08/15 05:20:00,38.3,22.9
2023/08/15 05:30:00,---,23.0
2023/08/15 05:40:00,49.0,23.0
2023/08/15 05:50:00,50.2,23.0
2023/08/15 06:00:00,48.5,23.0
2023/08/15 06:10:00,49.2,22.9
2023/08/15 06:20:00,50.4,22.9
2023/08/15 06:30:00,51.1,22.9
2023/08/15 06:40:00,51.8,22.7
2023/08/15 06:50:00,12.3,22.8
2023/08/15 07:00:00,24.2,22.7
2023/08/15 07:10:00,21.8,23.0
2023/08/15 07:20:00,---,23.0
2023/08/15 07:30:00,18.5,23.0
2023/08/15 07:40:00,18.7,22.8
2023/08/15 07:50:00,17.1,22.9
2023/08/15 08:00:00,13.1,23.0
2023/08/15 08:10:00,53.1,23.0
2023/08/15 08:20:00,---,23.0
2023/08/15 08:30:00,21.0,23.0
2023/08/15 08:40:00, 0.0,23.0
2023/08/15 08:50:00,31.4,23.2
2023/08/15 09:00:00,48.5,23.2
2023/08/15 09:10:00,30.9,23.1
2023/08/15 09:20:00,11.1,23.4
2023/08/15 09:30:00,15.0,23.4
2023/08/15 09:40:00,20.6,23.5
2023/08/15 09:50:00,46.6,23.6
2023/08/15 10:00:00,46.0,23.7
2023/08/15 10:10:00,46.4,23.3
2023/08/15 10:20:00,46.5,23.8
2023/08/15 10:30:00,46.9,23.8
2023/08/15 10:40:00,---,23.7
2023/08/15 10:50:00,46.3,23.9
2023/08/15 11:00:00,47.5,23.8
2023/08/15 11:10:00,49.4,23.7
2023/08/15 11:20:00,49.5,23.7
2023/08/15 11:30:00,49.0,23.7
2023/08/15 11:40:00,48.8,23.6
2023/08/15 11:50:00,49.6,23.7
2023/08/15 12:00:00,49.7,23.7
2023/08/15 12:10:00,50.1,23.4
2023/08/15 12:20:00,48.9,23.2
2023/08/15 12:30:00,48.8,23.7
2023/08/15 12:40:00,49.9,23.7
2023/08/15 12:50:00,50.9,23.7
2023/08/15 13:00:00,49.8,23.5
2023/08/15 13:10:00,50.6,23.4
2023/08/15 13:20:00,50.5,23.7
2023/08/15 13:30:00,49.7,23.8
2023/08/15 13:40:00,---,23.9
2023/08/15 13:50:00,49.3,23.8
2023/08/15 14:00:00,48.0,23.7
2023/08/15 14:10:00,46.9,23.7
2023/08/15 14:20:00,46.4,23.7
2023/08/15 14:30:00,47.5,23.7
2023/08/15 14:40:00,47.1,23.7
2023/08/15 14:50:00,46.7,23.7
2023/08/15 15:00:00,---,23.7
2023/08/15 15:10:00, 2.5,23.7
2023/08/15 15:20:00,28.4,23.8
2023/08/15 15:30:00,---,23.7
2023/08/15 15:40:00, 0.0,23.6
2023/08/15 15:50:00, 0.0,23.3
2023/08/15 16:00:00, 0.0,23.3
2023/08/15 16:10:00, 0.0,23.3
2023/08/15 16:20:00,11.0,23.4
2023/08/15 16:30:00,48.2,23.3
2023/08/15 16:40:00,48.2,22.6
2023/08/15 16:50:00,47.9,22.2
2023/08/15 17:00:00,48.1,22.0
2023/08/15 17:10:00,49.9,21.7
2023/08/15 17:20:00,49.0,21.5
2023/08/15 17:30:00,48.4,21.6
2023/08/15 17:40:00,47.5,21.7
2023/08/15 17:50:00,48.2,21.6
2023/08/15 18:00:00,49.1,21.3
2023/08/15 18:10:00,47.4,21.8
2023/08/15 18:20:00,48.0,21.2
2023/08/15 18:30:00,48.4,21.3
2023/08/15 18:40:00,49.2,21.2
2023/08/15 18:50:00,---,21.1
2023/08/15 19:00:00,32.3,21.4
2023/08/15 19:10:00,---,21.2
2023/08/15 19:20:00,---,21.3
2023/08/15 19:30:00,50.3,21.3
2023/08/15 19:40:00,50.8,21.3
2023/08/15 19:50:00,50.8,21.4
2023/08/15 20:00:00,51.3,21.2
2023/08/15 20:10:00,50.8,21.2
2023/08/15 20:20:00,52.2,21.1
2023/08/15 20:30:00,52.6,21.2
2023/08/15 20:40:00,53.0,21.3
2023/08/15 20:50:00, 0.0,21.3
2023/08/15 21:00:00, 0.0,21.3
2023/08/15 21:10:00, 0.0,21.3
2023/08/15 21:20:00, 0.0,21.2
2023/08/15 21:30:00, 0.0,21.1
2023/08/15 21:40:00, 0.0,21.3
2023/08/15 21:50:00, 0.0,21.0
2023/08/15 22:00:00, 0.0,21.3
2023/08/15 22:10:00, 0.0,21.4
2023/08/15 22:20:00, 0.0,21.5
2023/08/15 22:30:00, 0.0,21.5
2023/08/15 22:40:00, 0.0,21.5
2023/08/15 22:50:00,---,21.5
2023/08/15 23:00:00,52.3,21.4
2023/08/15 23:10:00,50.9,21.9
2023/08/15 23:20:00,50.0,21.9
2023/08/15 23:30:00,49.8,21.8
2023/08/15 23:40:00,49.8,21.8
2023/08/15 23:50:00,49.9,22.0
